Location: Bédeille
(43.0872°N, 1.1041°E)
Time: 12:42:11
(UTC+00:00)

RESURS DK-1 - Pass Details

Date: 03 February 2023
Orbit: 549 x 557 km, 69.9° (Epoch: 19 March)

Event Time Altitude Azimuth Distance (km) Brightness Sun altitude
Rises 18:14:10 0° 341° (NNW) 2,739 6.0 -12.0°
Reaches altitude 10° 18:16:30 10° 350° (N) 1,842 5.0 -12.4°
Maximum altitude 18:20:19 36° 58° (ENE) 888 2.9 -13.1°
Enters shadow 18:23:23 14° 121° (ESE) 1,569 4.2 -13.6°
